Airfield :
LOGIN :

Register | Disclaimer

   EN    FR    IT 

 










Legend :    VFR   Marginal VFR   IFR   Intensive IFR   Very Intensive IFR
Visi :
Ceiling :
>= 8 km
>= 3000ft
5 to 8 km
1000 to 3000 ft
1500m to 5 km
500 to 1000 ft
800 to 1500m
200 to 500 ft
< 800m
< 200 ft
Symbols :   Thunderstorms  Fog  Heavy snow  Heavy precipitations  Wind > 20 kt
SIGMETs :     Misc.  Thunderstorms  Icing  Turbulence  Mountain Waves  Volcanic Ashes







- Airport Elevation : 915 ft
- IATA code : LUG


LSZA - Lugano

CURRENT METAR :
  • 202250Z AUTO 35001KT CAVOK 13/07 Q1025

EXPIRED METARs :
  • 202220Z AUTO 00000KT CAVOK 13/08 Q1025
  • 202150Z AUTO VRB01KT 9999 NSC 13/09 Q1025
  • 202120Z AUTO 36002KT CAVOK 15/07 Q1025
  • 202050Z AUTO VRB03KT CAVOK 14/07 Q1025
  • 202020Z AUTO 35002KT CAVOK 15/07 Q1025

TAF TAF LSZA
Valid from the 20 at 15:00 until the 21 at 00:00 UTC


201425Z 2015/2024 20007KT 9999 FEW080
BECMG 2019/2021 CAVOK
ATIS : +41 22 417 40 88
No reported NOTAMs for that airfield.



MET'MAP, your aeronautical weather chart ! - Copyright ORBIFLY December 2007 - Disclaimer

ORBIFLY MET'MAP TEAM :

Programming & Development : Alexandra Zaïnal
Concept & Development : Baudouin d'Aumeries
Co-Development & Prog : Marc-Olivier Méhu
Technical & hardware support : Manuel Goepfert

Contact : metmap@orbifly.com




SOURCES & CREDITS :

   NOAA